iso_date,epoch_date,Year,Hour,Min,DOY,POS_DOY,Lat,Lon,BP,Ts,Ta,has_bp,has_ts,has_ta,BuoyID,Buoy_Type,Buoy_Owner,Logistics,Hemisphere
2021-02-02T17:00:57Z,1612285258,2021,17,1,33.709,33.709,59.99659,-168.27937,997.4,-999.00,-999.0,yes,no,no,300534060521350,ITB,USIABP,Utqiagvik,North
2021-02-02T18:00:00Z,1612288800,2021,18,0,33.75,33.75,60.01739,-168.30031,997.4,-999.00,-999.0,yes,no,no,300534060521350,ITB,USIABP,Utqiagvik,North
2021-02-02T19:00:02Z,1612292403,2021,19,0,33.7917,33.7917,60.04097,-168.30732,997.8,-999.00,-999.0,yes,no,no,300534060521350,ITB,USIABP,Utqiagvik,North
2021-02-02T19:59:57Z,1612295997,2021,20,0,33.8333,33.8333,60.0649,-168.29964,998.3,-999.00,-999.0,yes,no,no,300534060521350,ITB,USIABP,Utqiagvik,North
2021-02-02T21:00:00Z,1612299600,2021,21,0,33.875,33.875,60.08524,-168.28067,998.5,-999.00,-999.0,yes,no,no,300534060521350,ITB,USIABP,Utqiagvik,North
2021-02-02T22:00:02Z,1612303203,2021,22,0,33.9167,33.9167,60.09964,-168.25659,999.1,-999.00,-999.0,yes,no,no,300534060521350,ITB,USIABP,Utqiagvik,North
2021-02-02T22:59:57Z,1612306797,2021,23,0,33.9583,33.9583,60.10721,-168.23246,999.4,-999.00,-999.0,yes,no,no,300534060521350,ITB,USIABP,Utqiagvik,North
2021-02-03T00:00:00Z,1612310400,2021,0,0,34.0,34.0,60.10656,-168.21446,999.9,-999.00,-999.0,yes,no,no,300534060521350,ITB,USIABP,Utqiagvik,North
2021-02-03T01:00:02Z,1612314003,2021,1,0,34.0417,34.0417,60.09981,-168.20831,1000.4,-999.00,-999.0,yes,no,no,300534060521350,ITB,USIABP,Utqiagvik,North
2021-02-03T01:59:57Z,1612317597,2021,2,0,34.0833,34.0833,60.08966,-168.21481,1000.6,-999.00,-999.0,yes,no,no,300534060521350,ITB,USIABP,Utqiagvik,North
2021-02-03T03:00:00Z,1612321200,2021,3,0,34.125,34.125,60.08039,-168.23154,1001.6,-999.00,-999.0,yes,no,no,300534060521350,ITB,USIABP,Utqiagvik,North
2021-02-03T04:00:02Z,1612324803,2021,4,0,34.1667,34.1667,60.07597,-168.24983,1002.3,-999.00,-999.0,yes,no,no,300534060521350,ITB,USIABP,Utqiagvik,North
2021-02-03T04:59:57Z,1612328397,2021,5,0,34.2083,34.2083,60.07709,-168.26077,1003.2,-999.00,-999.0,yes,no,no,300534060521350,ITB,USIABP,Utqiagvik,North
2021-02-03T06:00:00Z,1612332000,2021,6,0,34.25,34.25,60.08409,-168.26461,1003.8,-999.00,-999.0,yes,no,no,300534060521350,ITB,USIABP,Utqiagvik,North
2021-02-03T07:00:02Z,1612335603,2021,7,0,34.2917,34.2917,60.09661,-168.25695,1004.6,-999.00,-999.0,yes,no,no,300534060521350,ITB,USIABP,Utqiagvik,North
2021-02-03T07:59:57Z,1612339197,2021,8,0,34.3333,34.3333,60.11265,-168.23823,1005.1,-999.00,-999.0,yes,no,no,300534060521350,ITB,USIABP,Utqiagvik,North
2021-02-03T09:00:00Z,1612342800,2021,9,0,34.375,34.375,60.13039,-168.21022,1005.4,-999.00,-999.0,yes,no,no,300534060521350,ITB,USIABP,Utqiagvik,North
2021-02-03T10:00:02Z,1612346403,2021,10,0,34.4167,34.4167,60.14555,-168.17737,1005.9,-999.00,-999.0,yes,no,no,300534060521350,ITB,USIABP,Utqiagvik,North
2021-02-03T10:59:57Z,1612349997,2021,11,0,34.4583,34.4583,60.15564,-168.14677,1006.5,-999.00,-999.0,yes,no,no,300534060521350,ITB,USIABP,Utqiagvik,North
2021-02-03T12:00:00Z,1612353600,2021,12,0,34.5,34.5,60.16002,-168.12596,1006.8,-999.00,-999.0,yes,no,no,300534060521350,ITB,USIABP,Utqiagvik,North
2021-02-03T13:00:02Z,1612357203,2021,13,0,34.5417,34.5417,60.15992,-168.12013,1006.8,-999.00,-999.0,yes,no,no,300534060521350,ITB,USIABP,Utqiagvik,North
2021-02-03T13:59:57Z,1612360797,2021,14,0,34.5833,34.5833,60.15741,-168.12789,1007.1,-999.00,-999.0,yes,no,no,300534060521350,ITB,USIABP,Utqiagvik,North
2021-02-03T15:00:00Z,1612364400,2021,15,0,34.625,34.625,60.15396,-168.14449,1007.2,-999.00,-999.0,yes,no,no,300534060521350,ITB,USIABP,Utqiagvik,North
2021-02-03T16:00:02Z,1612368003,2021,16,0,34.6667,34.6667,60.15139,-168.16523,1007.1,-999.00,-999.0,yes,no,no,300534060521350,ITB,USIABP,Utqiagvik,North
2021-02-03T16:59:57Z,1612371597,2021,17,0,34.7083,34.7083,60.15355,-168.18571,1007.1,-999.00,-999.0,yes,no,no,300534060521350,ITB,USIABP,Utqiagvik,North
2021-02-03T18:00:00Z,1612375200,2021,18,0,34.75,34.75,60.16171,-168.19876,1007.1,-999.00,-999.0,yes,no,no,300534060521350,ITB,USIABP,Utqiagvik,North
2021-02-03T19:00:02Z,1612378803,2021,19,0,34.7917,34.7917,60.17482,-168.19885,1007.6,-999.00,-999.0,yes,no,no,300534060521350,ITB,USIABP,Utqiagvik,North
2021-02-03T19:59:57Z,1612382397,2021,20,0,34.8333,34.8333,60.19013,-168.18309,1008.1,-999.00,-999.0,yes,no,no,300534060521350,ITB,USIABP,Utqiagvik,North
2021-02-03T21:00:00Z,1612386000,2021,21,0,34.875,34.875,60.20416,-168.15486,1008.3,-999.00,-999.0,yes,no,no,300534060521350,ITB,USIABP,Utqiagvik,North
2021-02-03T22:00:02Z,1612389603,2021,22,0,34.9167,34.9167,60.21473,-168.11895,1008.3,-999.00,-999.0,yes,no,no,300534060521350,ITB,USIABP,Utqiagvik,North
2021-02-03T22:59:57Z,1612393197,2021,23,0,34.9583,34.9583,60.21933,-168.08322,1008.4,-999.00,-999.0,yes,no,no,300534060521350,ITB,USIABP,Utqiagvik,North
2021-02-04T00:00:00Z,1612396800,2021,0,0,35.0,35.0,60.21842,-168.05598,1008.7,-999.00,-999.0,yes,no,no,300534060521350,ITB,USIABP,Utqiagvik,North
2021-02-04T01:00:02Z,1612400403,2021,1,0,35.0417,35.0417,60.2117,-168.04065,1008.7,-999.00,-999.0,yes,no,no,300534060521350,ITB,USIABP,Utqiagvik,North
2021-02-04T01:59:57Z,1612403997,2021,2,0,35.0833,35.0833,60.20029,-168.04073,1008.9,-999.00,-999.0,yes,no,no,300534060521350,ITB,USIABP,Utqiagvik,North
2021-02-04T03:00:00Z,1612407600,2021,3,0,35.125,35.125,60.18769,-168.05541,1008.9,-999.00,-999.0,yes,no,no,300534060521350,ITB,USIABP,Utqiagvik,North
2021-02-04T04:00:02Z,1612411203,2021,4,0,35.1667,35.1667,60.17871,-168.08125,1009.2,-999.00,-999.0,yes,no,no,300534060521350,ITB,USIABP,Utqiagvik,North
2021-02-04T04:59:57Z,1612414797,2021,5,0,35.2083,35.2083,60.17638,-168.11009,1009.5,-999.00,-999.0,yes,no,no,300534060521350,ITB,USIABP,Utqiagvik,North
2021-02-04T06:00:00Z,1612418400,2021,6,0,35.25,35.25,60.18204,-168.13364,1009.6,-999.00,-999.0,yes,no,no,300534060521350,ITB,USIABP,Utqiagvik,North
2021-02-04T07:00:02Z,1612422003,2021,7,0,35.2917,35.2917,60.19497,-168.14741,1009.5,-999.00,-999.0,yes,no,no,300534060521350,ITB,USIABP,Utqiagvik,North
2021-02-04T07:59:57Z,1612425597,2021,8,0,35.3333,35.3333,60.21339,-168.14864,1009.4,-999.00,-999.0,yes,no,no,300534060521350,ITB,USIABP,Utqiagvik,North
2021-02-04T09:00:00Z,1612429200,2021,9,0,35.375,35.375,60.23511,-168.1355,1009.9,-999.00,-999.0,yes,no,no,300534060521350,ITB,USIABP,Utqiagvik,North
2021-02-04T10:00:02Z,1612432803,2021,10,0,35.4167,35.4167,60.25613,-168.11147,1009.7,-999.00,-999.0,yes,no,no,300534060521350,ITB,USIABP,Utqiagvik,North
2021-02-04T10:59:57Z,1612436397,2021,11,0,35.4583,35.4583,60.27404,-168.08713,1009.6,-999.00,-999.0,yes,no,no,300534060521350,ITB,USIABP,Utqiagvik,North
2021-02-04T12:00:00Z,1612440000,2021,12,0,35.5,35.5,60.28813,-168.06767,1009.5,-999.00,-999.0,yes,no,no,300534060521350,ITB,USIABP,Utqiagvik,North
2021-02-04T13:00:02Z,1612443603,2021,13,0,35.5417,35.5417,60.29781,-168.0566,1009.3,-999.00,-999.0,yes,no,no,300534060521350,ITB,USIABP,Utqiagvik,North
2021-02-04T13:59:57Z,1612447197,2021,14,0,35.5833,35.5833,60.30395,-168.05665,1009.3,-999.00,-999.0,yes,no,no,300534060521350,ITB,USIABP,Utqiagvik,North
2021-02-04T15:00:00Z,1612450800,2021,15,0,35.625,35.625,60.30716,-168.06814,1009.6,-999.00,-999.0,yes,no,no,300534060521350,ITB,USIABP,Utqiagvik,North
2021-02-04T16:00:02Z,1612454403,2021,16,0,35.6667,35.6667,60.30895,-168.09125,1009.7,-999.00,-999.0,yes,no,no,300534060521350,ITB,USIABP,Utqiagvik,North
2021-02-04T16:59:57Z,1612457997,2021,17,0,35.7083,35.7083,60.31245,-168.12065,1010.0,-999.00,-999.0,yes,no,no,300534060521350,ITB,USIABP,Utqiagvik,North
2021-02-04T18:00:00Z,1612461600,2021,18,0,35.75,35.75,60.31982,-168.15045,1010.1,-999.00,-999.0,yes,no,no,300534060521350,ITB,USIABP,Utqiagvik,North
2021-02-04T19:00:02Z,1612465203,2021,19,0,35.7917,35.7917,60.33169,-168.17353,1010.4,-999.00,-999.0,yes,no,no,300534060521350,ITB,USIABP,Utqiagvik,North
2021-02-04T19:59:57Z,1612468797,2021,20,0,35.8333,35.8333,60.34677,-168.18377,1011.1,-999.00,-999.0,yes,no,no,300534060521350,ITB,USIABP,Utqiagvik,North
2021-02-04T21:00:00Z,1612472400,2021,21,0,35.875,35.875,60.36341,-168.18119,1011.5,-999.00,-999.0,yes,no,no,300534060521350,ITB,USIABP,Utqiagvik,North
2021-02-04T22:00:02Z,1612476003,2021,22,0,35.9167,35.9167,60.37978,-168.16958,1011.5,-999.00,-999.0,yes,no,no,300534060521350,ITB,USIABP,Utqiagvik,North
2021-02-04T22:59:57Z,1612479597,2021,23,0,35.9583,35.9583,60.39373,-168.15342,1011.7,-999.00,-999.0,yes,no,no,300534060521350,ITB,USIABP,Utqiagvik,North
2021-02-05T00:00:00Z,1612483200,2021,0,0,36.0,36.0,60.40418,-168.13882,1011.5,-999.00,-999.0,yes,no,no,300534060521350,ITB,USIABP,Utqiagvik,North
2021-02-05T01:00:02Z,1612486803,2021,1,0,36.0417,36.0417,60.41102,-168.13447,1011.3,-999.00,-999.0,yes,no,no,300534060521350,ITB,USIABP,Utqiagvik,North
2021-02-05T01:59:57Z,1612490397,2021,2,0,36.0833,36.0833,60.41539,-168.14402,1010.9,-999.00,-999.0,yes,no,no,300534060521350,ITB,USIABP,Utqiagvik,North
2021-02-05T03:00:00Z,1612494000,2021,3,0,36.125,36.125,60.41792,-168.16784,1010.5,-999.00,-999.0,yes,no,no,300534060521350,ITB,USIABP,Utqiagvik,North
2021-02-05T04:00:02Z,1612497603,2021,4,0,36.1667,36.1667,60.42137,-168.20536,1009.9,-999.00,-999.0,yes,no,no,300534060521350,ITB,USIABP,Utqiagvik,North
2021-02-05T04:59:57Z,1612501197,2021,5,0,36.2083,36.2083,60.42911,-168.25067,1009.2,-999.00,-999.0,yes,no,no,300534060521350,ITB,USIABP,Utqiagvik,North
2021-02-05T06:00:00Z,1612504800,2021,6,0,36.25,36.25,60.44185,-168.2965,1008.5,-999.00,-999.0,yes,no,no,300534060521350,ITB,USIABP,Utqiagvik,North
2021-02-05T07:00:02Z,1612508403,2021,7,0,36.2917,36.2917,60.45866,-168.33536,1007.8,-999.00,-999.0,yes,no,no,300534060521350,ITB,USIABP,Utqiagvik,North
2021-02-05T07:59:57Z,1612511997,2021,8,0,36.3333,36.3333,60.47929,-168.36442,1007.1,-999.00,-999.0,yes,no,no,300534060521350,ITB,USIABP,Utqiagvik,North
2021-02-05T09:00:00Z,1612515600,2021,9,0,36.375,36.375,60.50302,-168.3811,1006.7,-999.00,-999.0,yes,no,no,300534060521350,ITB,USIABP,Utqiagvik,North
2021-02-05T10:00:02Z,1612519203,2021,10,0,36.4167,36.4167,60.52899,-168.38421,1006.0,-999.00,-999.0,yes,no,no,300534060521350,ITB,USIABP,Utqiagvik,North
2021-02-05T10:59:57Z,1612522797,2021,11,0,36.4583,36.4583,60.55453,-168.37654,1005.6,-999.00,-999.0,yes,no,no,300534060521350,ITB,USIABP,Utqiagvik,North
2021-02-05T12:00:00Z,1612526400,2021,12,0,36.5,36.5,60.57713,-168.3632,1005.1,-999.00,-999.0,yes,no,no,300534060521350,ITB,USIABP,Utqiagvik,North
2021-02-05T13:00:02Z,1612530003,2021,13,0,36.5417,36.5417,60.59623,-168.34719,1005.1,-999.00,-999.0,yes,no,no,300534060521350,ITB,USIABP,Utqiagvik,North
2021-02-05T13:59:57Z,1612533597,2021,14,0,36.5833,36.5833,60.61243,-168.32862,1005.0,-999.00,-999.0,yes,no,no,300534060521350,ITB,USIABP,Utqiagvik,North
2021-02-05T15:00:00Z,1612537200,2021,15,0,36.625,36.625,60.62706,-168.30744,1006.4,-999.00,-999.0,yes,no,no,300534060521350,ITB,USIABP,Utqiagvik,North
2021-02-05T16:00:02Z,1612540803,2021,16,0,36.6667,36.6667,60.64084,-168.28591,1009.2,-999.00,-999.0,yes,no,no,300534060521350,ITB,USIABP,Utqiagvik,North
2021-02-05T16:59:57Z,1612544397,2021,17,0,36.7083,36.7083,60.65341,-168.26255,1011.9,-999.00,-999.0,yes,no,no,300534060521350,ITB,USIABP,Utqiagvik,North
2021-02-05T18:00:00Z,1612548000,2021,18,0,36.75,36.75,60.66253,-168.25285,1013.6,-999.00,-999.0,yes,no,no,300534060521350,ITB,USIABP,Utqiagvik,North
2021-02-05T19:00:02Z,1612551603,2021,19,0,36.7917,36.7917,60.6747,-168.24804,1015.4,-999.00,-999.0,yes,no,no,300534060521350,ITB,USIABP,Utqiagvik,North
2021-02-05T19:59:57Z,1612555197,2021,20,0,36.8333,36.8333,60.68836,-168.23923,1016.9,-999.00,-999.0,yes,no,no,300534060521350,ITB,USIABP,Utqiagvik,North
2021-02-05T21:00:00Z,1612558800,2021,21,0,36.875,36.875,60.70285,-168.2232,1018.3,-999.00,-999.0,yes,no,no,300534060521350,ITB,USIABP,Utqiagvik,North
2021-02-05T22:00:02Z,1612562403,2021,22,0,36.9167,36.9167,60.71736,-168.19762,1019.2,-999.00,-999.0,yes,no,no,300534060521350,ITB,USIABP,Utqiagvik,North
2021-02-05T22:59:57Z,1612565997,2021,23,0,36.9583,36.9583,60.7307,-168.1618,1020.2,-999.00,-999.0,yes,no,no,300534060521350,ITB,USIABP,Utqiagvik,North
2021-02-06T00:00:00Z,1612569600,2021,0,0,37.0,37.0,60.74089,-168.11983,1021.3,-999.00,-999.0,yes,no,no,300534060521350,ITB,USIABP,Utqiagvik,North
2021-02-06T01:00:02Z,1612573203,2021,1,0,37.0417,37.0417,60.74754,-168.07712,1022.3,-999.00,-999.0,yes,no,no,300534060521350,ITB,USIABP,Utqiagvik,North
2021-02-06T01:59:57Z,1612576797,2021,2,0,37.0833,37.0833,60.75044,-168.04279,1023.7,-999.00,-999.0,yes,no,no,300534060521350,ITB,USIABP,Utqiagvik,North
2021-02-06T03:00:00Z,1612580400,2021,3,0,37.125,37.125,60.75099,-168.02337,1025.2,-999.00,-999.0,yes,no,no,300534060521350,ITB,USIABP,Utqiagvik,North
2021-02-06T04:00:02Z,1612584003,2021,4,0,37.1667,37.1667,60.75099,-168.01878,1026.2,-999.00,-999.0,yes,no,no,300534060521350,ITB,USIABP,Utqiagvik,North
2021-02-06T04:59:57Z,1612587597,2021,5,0,37.2083,37.2083,60.75172,-168.02796,1027.6,-999.00,-999.0,yes,no,no,300534060521350,ITB,USIABP,Utqiagvik,North
2021-02-06T06:00:00Z,1612591200,2021,6,0,37.25,37.25,60.75472,-168.04329,1029.0,-999.00,-999.0,yes,no,no,300534060521350,ITB,USIABP,Utqiagvik,North
2021-02-06T07:00:02Z,1612594803,2021,7,0,37.2917,37.2917,60.75903,-168.05787,1030.0,-999.00,-999.0,yes,no,no,300534060521350,ITB,USIABP,Utqiagvik,North
2021-02-06T07:59:57Z,1612598397,2021,8,0,37.3333,37.3333,60.76427,-168.06822,1031.1,-999.00,-999.0,yes,no,no,300534060521350,ITB,USIABP,Utqiagvik,North
2021-02-06T09:00:00Z,1612602000,2021,9,0,37.375,37.375,60.77052,-168.07046,1032.1,-999.00,-999.0,yes,no,no,300534060521350,ITB,USIABP,Utqiagvik,North
2021-02-06T10:00:02Z,1612605603,2021,10,0,37.4167,37.4167,60.77755,-168.06135,1032.8,-999.00,-999.0,yes,no,no,300534060521350,ITB,USIABP,Utqiagvik,North
2021-02-06T10:59:57Z,1612609197,2021,11,0,37.4583,37.4583,60.78369,-168.04147,1033.6,-999.00,-999.0,yes,no,no,300534060521350,ITB,USIABP,Utqiagvik,North
2021-02-06T12:00:00Z,1612612800,2021,12,0,37.5,37.5,60.78816,-168.01302,1034.3,-999.00,-999.0,yes,no,no,300534060521350,ITB,USIABP,Utqiagvik,North
2021-02-06T13:00:02Z,1612616403,2021,13,0,37.5417,37.5417,60.79069,-167.98113,1034.9,-999.00,-999.0,yes,no,no,300534060521350,ITB,USIABP,Utqiagvik,North
2021-02-06T13:59:57Z,1612619997,2021,14,0,37.5833,37.5833,60.79056,-167.95227,1035.0,-999.00,-999.0,yes,no,no,300534060521350,ITB,USIABP,Utqiagvik,North
2021-02-06T15:00:00Z,1612623600,2021,15,0,37.625,37.625,60.78712,-167.93256,1034.8,-999.00,-999.0,yes,no,no,300534060521350,ITB,USIABP,Utqiagvik,North
2021-02-06T16:00:02Z,1612627203,2021,16,0,37.6667,37.6667,60.78053,-167.92767,1035.6,-999.00,-999.0,yes,no,no,300534060521350,ITB,USIABP,Utqiagvik,North
2021-02-06T16:59:57Z,1612630797,2021,17,0,37.7083,37.7083,60.77206,-167.93952,1035.6,-999.00,-999.0,yes,no,no,300534060521350,ITB,USIABP,Utqiagvik,North
2021-02-06T18:00:00Z,1612634400,2021,18,0,37.75,37.75,60.76242,-167.96604,1036.0,-999.00,-999.0,yes,no,no,300534060521350,ITB,USIABP,Utqiagvik,North
2021-02-06T19:00:02Z,1612638003,2021,19,0,37.7917,37.7917,60.75363,-168.00099,1036.0,-999.00,-999.0,yes,no,no,300534060521350,ITB,USIABP,Utqiagvik,North
2021-02-06T19:59:57Z,1612641597,2021,20,0,37.8333,37.8333,60.74668,-168.03722,1036.7,-999.00,-999.0,yes,no,no,300534060521350,ITB,USIABP,Utqiagvik,North
2021-02-06T21:00:00Z,1612645200,2021,21,0,37.875,37.875,60.74153,-168.06578,1036.5,-999.00,-999.0,yes,no,no,300534060521350,ITB,USIABP,Utqiagvik,North
2021-02-06T22:00:02Z,1612648803,2021,22,0,37.9167,37.9167,60.73803,-168.08312,1036.7,-999.00,-999.0,yes,no,no,300534060521350,ITB,USIABP,Utqiagvik,North
2021-02-06T22:59:57Z,1612652397,2021,23,0,37.9583,37.9583,60.73539,-168.08956,1036.5,-999.00,-999.0,yes,no,no,300534060521350,ITB,USIABP,Utqiagvik,North
2021-02-07T00:00:00Z,1612656000,2021,0,0,38.0,38.0,60.73202,-168.088,1035.5,-999.00,-999.0,yes,no,no,300534060521350,ITB,USIABP,Utqiagvik,North
2021-02-07T01:00:02Z,1612659603,2021,1,0,38.0417,38.0417,60.72582,-168.08596,1034.5,-999.00,-999.0,yes,no,no,300534060521350,ITB,USIABP,Utqiagvik,North
2021-02-07T01:59:57Z,1612663197,2021,2,0,38.0833,38.0833,60.71643,-168.08916,1033.5,-999.00,-999.0,yes,no,no,300534060521350,ITB,USIABP,Utqiagvik,North
2021-02-07T03:00:00Z,1612666800,2021,3,0,38.125,38.125,60.70575,-168.10039,1033.5,-999.00,-999.0,yes,no,no,300534060521350,ITB,USIABP,Utqiagvik,North
2021-02-07T04:00:02Z,1612670403,2021,4,0,38.1667,38.1667,60.6965,-168.12136,1033.0,-999.00,-999.0,yes,no,no,300534060521350,ITB,USIABP,Utqiagvik,North
2021-02-07T04:59:57Z,1612673997,2021,5,0,38.2083,38.2083,60.68842,-168.15378,1032.4,-999.00,-999.0,yes,no,no,300534060521350,ITB,USIABP,Utqiagvik,North
2021-02-07T06:00:00Z,1612677600,2021,6,0,38.25,38.25,60.68352,-168.19521,1032.1,-999.00,-999.0,yes,no,no,300534060521350,ITB,USIABP,Utqiagvik,North
2021-02-07T07:00:02Z,1612681203,2021,7,0,38.2917,38.2917,60.68238,-168.24019,1031.8,-999.00,-999.0,yes,no,no,300534060521350,ITB,USIABP,Utqiagvik,North
2021-02-07T07:59:57Z,1612684797,2021,8,0,38.3333,38.3333,60.68547,-168.28446,1031.4,-999.00,-999.0,yes,no,no,300534060521350,ITB,USIABP,Utqiagvik,North
2021-02-07T09:00:00Z,1612688400,2021,9,0,38.375,38.375,60.69151,-168.3223,1031.1,-999.00,-999.0,yes,no,no,300534060521350,ITB,USIABP,Utqiagvik,North
2021-02-07T10:00:02Z,1612692003,2021,10,0,38.4167,38.4167,60.69922,-168.35163,1030.8,-999.00,-999.0,yes,no,no,300534060521350,ITB,USIABP,Utqiagvik,North
2021-02-07T10:59:57Z,1612695597,2021,11,0,38.4583,38.4583,60.70884,-168.36747,1030.4,-999.00,-999.0,yes,no,no,300534060521350,ITB,USIABP,Utqiagvik,North
2021-02-07T12:00:00Z,1612699200,2021,12,0,38.5,38.5,60.71819,-168.3747,1029.6,-999.00,-999.0,yes,no,no,300534060521350,ITB,USIABP,Utqiagvik,North
2021-02-07T13:00:02Z,1612702803,2021,13,0,38.5417,38.5417,60.72656,-168.37527,1028.8,-999.00,-999.0,yes,no,no,300534060521350,ITB,USIABP,Utqiagvik,North
2021-02-07T13:59:57Z,1612706397,2021,14,0,38.5833,38.5833,60.73259,-168.37199,1028.4,-999.00,-999.0,yes,no,no,300534060521350,ITB,USIABP,Utqiagvik,North
2021-02-07T15:00:00Z,1612710000,2021,15,0,38.625,38.625,60.73505,-168.37086,1027.4,-999.00,-999.0,yes,no,no,300534060521350,ITB,USIABP,Utqiagvik,North
2021-02-07T16:00:02Z,1612713603,2021,16,0,38.6667,38.6667,60.73411,-168.37719,1027.0,-999.00,-999.0,yes,no,no,300534060521350,ITB,USIABP,Utqiagvik,North
2021-02-07T16:59:57Z,1612717197,2021,17,0,38.7083,38.7083,60.72966,-168.39401,1026.7,-999.00,-999.0,yes,no,no,300534060521350,ITB,USIABP,Utqiagvik,North
2021-02-07T18:00:00Z,1612720800,2021,18,0,38.75,38.75,60.72321,-168.42192,1026.3,-999.00,-999.0,yes,no,no,300534060521350,ITB,USIABP,Utqiagvik,North
2021-02-07T19:00:02Z,1612724403,2021,19,0,38.7917,38.7917,60.71563,-168.45976,1026.4,-999.00,-999.0,yes,no,no,300534060521350,ITB,USIABP,Utqiagvik,North
2021-02-07T19:59:57Z,1612727997,2021,20,0,38.8333,38.8333,60.70806,-168.50354,1026.2,-999.00,-999.0,yes,no,no,300534060521350,ITB,USIABP,Utqiagvik,North
2021-02-07T21:00:00Z,1612731600,2021,21,0,38.875,38.875,60.70302,-168.54726,1026.2,-999.00,-999.0,yes,no,no,300534060521350,ITB,USIABP,Utqiagvik,North
2021-02-07T22:00:02Z,1612735203,2021,22,0,38.9167,38.9167,60.69986,-168.58646,1026.1,-999.00,-999.0,yes,no,no,300534060521350,ITB,USIABP,Utqiagvik,North
2021-02-07T22:59:57Z,1612738797,2021,23,0,38.9583,38.9583,60.6988,-168.61669,1025.8,-999.00,-999.0,yes,no,no,300534060521350,ITB,USIABP,Utqiagvik,North
2021-02-08T00:00:00Z,1612742400,2021,0,0,39.0,39.0,60.69949,-168.64225,1025.3,-999.00,-999.0,yes,no,no,300534060521350,ITB,USIABP,Utqiagvik,North
2021-02-08T01:00:02Z,1612746003,2021,1,0,39.0417,39.0417,60.70087,-168.65906,1025.1,-999.00,-999.0,yes,no,no,300534060521350,ITB,USIABP,Utqiagvik,North
2021-02-08T01:59:57Z,1612749597,2021,2,0,39.0833,39.0833,60.70242,-168.67037,1025.2,-999.00,-999.0,yes,no,no,300534060521350,ITB,USIABP,Utqiagvik,North
2021-02-08T03:00:00Z,1612753200,2021,3,0,39.125,39.125,60.70301,-168.68093,1024.8,-999.00,-999.0,yes,no,no,300534060521350,ITB,USIABP,Utqiagvik,North
2021-02-08T04:00:02Z,1612756803,2021,4,0,39.1667,39.1667,60.70227,-168.69587,1024.6,-999.00,-999.0,yes,no,no,300534060521350,ITB,USIABP,Utqiagvik,North
2021-02-08T04:59:57Z,1612760397,2021,5,0,39.2083,39.2083,60.70089,-168.71996,1024.6,-999.00,-999.0,yes,no,no,300534060521350,ITB,USIABP,Utqiagvik,North
2021-02-08T06:00:00Z,1612764000,2021,6,0,39.25,39.25,60.70029,-168.75262,1024.8,-999.00,-999.0,yes,no,no,300534060521350,ITB,USIABP,Utqiagvik,North
2021-02-08T07:00:02Z,1612767603,2021,7,0,39.2917,39.2917,60.70168,-168.79239,1024.8,-999.00,-999.0,yes,no,no,300534060521350,ITB,USIABP,Utqiagvik,North
2021-02-08T07:59:57Z,1612771197,2021,8,0,39.3333,39.3333,60.70594,-168.83703,1025.0,-999.00,-999.0,yes,no,no,300534060521350,ITB,USIABP,Utqiagvik,North
2021-02-08T09:00:00Z,1612774800,2021,9,0,39.375,39.375,60.71291,-168.88099,1025.0,-999.00,-999.0,yes,no,no,300534060521350,ITB,USIABP,Utqiagvik,North
2021-02-08T10:00:02Z,1612778403,2021,10,0,39.4167,39.4167,60.72313,-168.92147,1025.2,-999.00,-999.0,yes,no,no,300534060521350,ITB,USIABP,Utqiagvik,North
2021-02-08T10:59:57Z,1612781997,2021,11,0,39.4583,39.4583,60.73577,-168.95502,1025.2,-999.00,-999.0,yes,no,no,300534060521350,ITB,USIABP,Utqiagvik,North
2021-02-08T12:00:00Z,1612785600,2021,12,0,39.5,39.5,60.74992,-168.97896,1025.3,-999.00,-999.0,yes,no,no,300534060521350,ITB,USIABP,Utqiagvik,North
2021-02-08T13:00:02Z,1612789203,2021,13,0,39.5417,39.5417,60.76544,-168.99242,1025.0,-999.00,-999.0,yes,no,no,300534060521350,ITB,USIABP,Utqiagvik,North
2021-02-08T13:59:57Z,1612792797,2021,14,0,39.5833,39.5833,60.78112,-168.99525,1025.1,-999.00,-999.0,yes,no,no,300534060521350,ITB,USIABP,Utqiagvik,North
2021-02-08T15:00:00Z,1612796400,2021,15,0,39.625,39.625,60.79477,-168.99091,1025.1,-999.00,-999.0,yes,no,no,300534060521350,ITB,USIABP,Utqiagvik,North
2021-02-08T16:00:02Z,1612800003,2021,16,0,39.6667,39.6667,60.80535,-168.98447,1025.2,-999.00,-999.0,yes,no,no,300534060521350,ITB,USIABP,Utqiagvik,North
2021-02-08T16:59:57Z,1612803597,2021,17,0,39.7083,39.7083,60.81162,-168.98179,1025.4,-999.00,-999.0,yes,no,no,300534060521350,ITB,USIABP,Utqiagvik,North
2021-02-08T18:00:00Z,1612807200,2021,18,0,39.75,39.75,60.81372,-168.98728,1025.4,-999.00,-999.0,yes,no,no,300534060521350,ITB,USIABP,Utqiagvik,North
2021-02-08T19:00:02Z,1612810803,2021,19,0,39.7917,39.7917,60.81254,-169.00297,1025.8,-999.00,-999.0,yes,no,no,300534060521350,ITB,USIABP,Utqiagvik,North
2021-02-08T19:59:57Z,1612814397,2021,20,0,39.8333,39.8333,60.80943,-169.02946,1025.9,-999.00,-999.0,yes,no,no,300534060521350,ITB,USIABP,Utqiagvik,North
2021-02-08T21:00:00Z,1612818000,2021,21,0,39.875,39.875,60.80635,-169.06266,1025.8,-999.00,-999.0,yes,no,no,300534060521350,ITB,USIABP,Utqiagvik,North
2021-02-08T22:00:02Z,1612821603,2021,22,0,39.9167,39.9167,60.8043,-169.09765,1026.1,-999.00,-999.0,yes,no,no,300534060521350,ITB,USIABP,Utqiagvik,North
2021-02-08T22:59:57Z,1612825197,2021,23,0,39.9583,39.9583,60.80392,-169.12866,1025.9,-999.00,-999.0,yes,no,no,300534060521350,ITB,USIABP,Utqiagvik,North
2021-02-09T00:00:00Z,1612828800,2021,0,0,40.0,40.0,60.80515,-169.15295,1026.1,-999.00,-999.0,yes,no,no,300534060521350,ITB,USIABP,Utqiagvik,North
2021-02-09T01:00:02Z,1612832403,2021,1,0,40.0417,40.0417,60.80721,-169.16952,1026.1,-999.00,-999.0,yes,no,no,300534060521350,ITB,USIABP,Utqiagvik,North
2021-02-09T01:59:57Z,1612835997,2021,2,0,40.0833,40.0833,60.80897,-169.1797,1026.3,-999.00,-999.0,yes,no,no,300534060521350,ITB,USIABP,Utqiagvik,North
2021-02-09T03:00:00Z,1612839600,2021,3,0,40.125,40.125,60.80955,-169.18662,1026.6,-999.00,-999.0,yes,no,no,300534060521350,ITB,USIABP,Utqiagvik,North
2021-02-09T04:00:02Z,1612843203,2021,4,0,40.1667,40.1667,60.80849,-169.19498,1026.7,-999.00,-999.0,yes,no,no,300534060521350,ITB,USIABP,Utqiagvik,North
2021-02-09T04:59:57Z,1612846797,2021,5,0,40.2083,40.2083,60.80619,-169.20875,1026.9,-999.00,-999.0,yes,no,no,300534060521350,ITB,USIABP,Utqiagvik,North